Find OneWeb SL0229

NORAD ID: 48779 Int'l Des: 2021-045 Owner: ONEWEBN Country: UK Constellation: oneweb operational
LEOCIRCULARPOLARONEWEB_TYPE

Live Position

Loading 3D Globe...

About OneWeb SL0229

Description loading...

Upcoming Passes

Passes for default location (London). Set your location on the main map for personalized predictions.

Altitude History

Loading altitude history...

Two-Line Element Set

1 48779U 21045N 26127.14290508 .00000029 00000-0 42291-4 0 9997
2 48779 87.8977 267.3700 0001941 95.1578 264.9774 13.15548483239014
Epoch: May 7, 2026 • Age: 10 hours

Current Status

Altitude 1230.5 km
Velocity 7.24 km/s
Sub-Earth Point -74.78°S, 21.86°E
Launch Date May 28, 2021
Age 4.9 years
Type internet

Technical Details

Classification Payload
Mass 148.00 kg
Dry Mass 140.00 kg
Total Mass 148.00 kg
Length 1.30 m
Diameter 1.00 m
Span 5.00 m
Shape Trapezoid+2 pan
Manufacturer ONEWUS
Bus Type ARROW
Phase Status In Orbit
Owner/State ONEWEBN/UK

Most Searched